• In France
  • List of Countries
  • For 7 days
  • Water Temperature
  • Satellite Maps
  • Weather Map
  • Weather Widgets
  • user-avatar
    Login

    Hourly Weather Santa Rita

    Today, 21 May, Monday

    Time Temperature Precipitation Wind Pressure Humidity
    00:00 +26°C° 0.8 mm 1 mps 749 mmHg 94%
    01:00 +26°C° 0.8 mm 1 mps 749 mmHg 95%
    02:00 +26°C° 1.4 mm 1 mps 749 mmHg 95%
    03:00 +26°C° 1.4 mm 1 mps 749 mmHg 95%
    04:00 +26°C° 1.4 mm 1 mps 749 mmHg 96%
    05:00 +26°C° 0.6 mm 1 mps 749 mmHg 95%
    06:00 +26°C° 0.6 mm 1 mps 750 mmHg 95%
    07:00 +26°C° 0.6 mm 1 mps 750 mmHg 94%
    08:00 +26°C° 0.5 mm 1 mps 750 mmHg 91%
    09:00 +27°C° 0.5 mm 1 mps 750 mmHg 88%
    10:00 +28°C° 0.5 mm 1 mps 750 mmHg 84%
    11:00 +29°C° 0.1 mm 1 mps 750 mmHg 77%
    12:00 +30°C° 0.1 mm 1 mps 749 mmHg 70%
    13:00 +31°C° 0.1 mm 1 mps 748 mmHg 63%
    14:00 +31°C° 0 mm 2 mps 748 mmHg 63%
    15:00 +31°C° 0 mm 2 mps 747 mmHg 64%
    16:00 +31°C° 0 mm 2 mps 747 mmHg 65%
    17:00 +30°C° 0 mm 2 mps 747 mmHg 70%
    18:00 +28°C° 0 mm 1 mps 748 mmHg 76%
    19:00 +27°C° 0 mm 1 mps 748 mmHg 82%
    20:00 +27°C° 0.1 mm 1 mps 748 mmHg 83%
    21:00 +27°C° 0.1 mm 1 mps 749 mmHg 85%
    22:00 +26°C° 0.1 mm 1 mps 749 mmHg 86%
    23:00 +24°C° 0 mm 0 mps 749 mmHg 87%

    Tomorrow, 22 May, Tuesday

    Time Temperature Precipitation Wind Pressure Humidity
    00:00 +24°C° 0 mm 0 mps 749 mmHg 88%
    01:00 +24°C° 0 mm 0 mps 748 mmHg 90%
    02:00 +24°C° 0.1 mm 0 mps 748 mmHg 89%
    03:00 +24°C° 0.1 mm 0 mps 748 mmHg 89%
    04:00 +24°C° 0.1 mm 0 mps 748 mmHg 89%
    05:00 +24°C° 0 mm 0 mps 749 mmHg 87%
    06:00 +25°C° 0 mm 0 mps 749 mmHg 85%
    07:00 +25°C° 0 mm 0 mps 750 mmHg 83%
    08:00 +26°C° 0.2 mm 0 mps 750 mmHg 82%
    09:00 +28°C° 0.2 mm 1 mps 750 mmHg 82%
    10:00 +29°C° 0.2 mm 1 mps 751 mmHg 81%
    11:00 +29°C° 0.4 mm 1 mps 750 mmHg 80%
    12:00 +30°C° 0.4 mm 1 mps 749 mmHg 78%
    13:00 +30°C° 0.4 mm 1 mps 748 mmHg 76%
    14:00 +30°C° 0 mm 1 mps 748 mmHg 75%
    15:00 +30°C° 0 mm 1 mps 747 mmHg 75%
    16:00 +30°C° 0 mm 1 mps 747 mmHg 74%
    17:00 +29°C° 0.2 mm 1 mps 747 mmHg 79%
    18:00 +28°C° 0.2 mm 2 mps 748 mmHg 84%
    19:00 +27°C° 0.2 mm 2 mps 748 mmHg 89%
    20:00 +26°C° 1 mm 1 mps 749 mmHg 89%
    21:00 +26°C° 1 mm 1 mps 749 mmHg 90%
    22:00 +26°C° 1 mm 1 mps 750 mmHg 90%
    23:00 +26°C° 0.3 mm 1 mps 750 mmHg 91%

    Day after tomorrow, 23 May, Wednesday

    Time Temperature Precipitation Wind Pressure Humidity
    00:00 +25°C° 0.3 mm 1 mps 749 mmHg 91%
    01:00 +25°C° 0.3 mm 1 mps 749 mmHg 92%
    02:00 +25°C° 0.4 mm 1 mps 749 mmHg 92%
    03:00 +25°C° 0.4 mm 1 mps 749 mmHg 93%
    04:00 +25°C° 0.4 mm 1 mps 749 mmHg 93%
    05:00 +25°C° 0.4 mm 1 mps 749 mmHg 92%
    06:00 +26°C° 0.4 mm 1 mps 750 mmHg 91%
    07:00 +26°C° 0.4 mm 1 mps 750 mmHg 90%
    08:00 +27°C° 0.4 mm 1 mps 750 mmHg 86%
    09:00 +28°C° 0.4 mm 1 mps 751 mmHg 83%
    10:00 +29°C° 0.4 mm 2 mps 751 mmHg 79%
    11:00 +30°C° 0.9 mm 2 mps 750 mmHg 76%
    12:00 +31°C° 0.9 mm 2 mps 749 mmHg 74%
    13:00 +31°C° 0.9 mm 2 mps 749 mmHg 72%
    14:00 +31°C° 0.6 mm 1 mps 748 mmHg 73%
    15:00 +31°C° 0.6 mm 1 mps 748 mmHg 73%
    16:00 +31°C° 0.6 mm 1 mps 748 mmHg 74%
    17:00 +30°C° 0.3 mm 1 mps 748 mmHg 79%
    18:00 +28°C° 0.3 mm 1 mps 749 mmHg 83%
    19:00 +27°C° 0.3 mm 1 mps 749 mmHg 88%
    20:00 +27°C° 1.4 mm 1 mps 750 mmHg 89%
    21:00 +27°C° 1.4 mm 1 mps 750 mmHg 90%
    22:00 +26°C° 1.4 mm 1 mps 751 mmHg 91%
    23:00 +26°C° 0.7 mm 1 mps 750 mmHg 92%

    24 May, Thursday

    Time Temperature Precipitation Wind Pressure Humidity
    00:00 +26°C° 0.7 mm 1 mps 750 mmHg 92%
    01:00 +26°C° 0.7 mm 1 mps 750 mmHg 92%
    02:00 +26°C° 0.5 mm 1 mps 750 mmHg 93%
    03:00 +26°C° 0.5 mm 1 mps 750 mmHg 93%
    04:00 +25°C° 0.5 mm 1 mps 750 mmHg 93%
    05:00 +25°C° 0.3 mm 1 mps 750 mmHg 94%
    06:00 +26°C° 0.3 mm 1 mps 751 mmHg 94%
    07:00 +26°C° 0.3 mm 1 mps 752 mmHg 94%
    08:00 +26°C° 0.8 mm 1 mps 752 mmHg 92%
    09:00 +27°C° 0.8 mm 1 mps 752 mmHg 91%
    10:00 +25°C° 0.8 mm 0 mps 752 mmHg 89%
    11:00 +28°C° 0.4 mm 1 mps 751 mmHg 83%
    12:00 +30°C° 0.4 mm 1 mps 750 mmHg 77%
    13:00 +31°C° 0.4 mm 1 mps 749 mmHg 71%
    14:00 +31°C° 0.1 mm 1 mps 749 mmHg 71%
    15:00 +31°C° 0.1 mm 1 mps 748 mmHg 71%
    16:00 +31°C° 0.1 mm 1 mps 748 mmHg 72%
    17:00 +30°C° 0.1 mm 1 mps 749 mmHg 76%
    18:00 +29°C° 0.1 mm 1 mps 749 mmHg 81%
    19:00 +27°C° 0.1 mm 1 mps 750 mmHg 86%
    20:00 +27°C° 1.1 mm 1 mps 750 mmHg 88%
    21:00 +27°C° 1.1 mm 1 mps 751 mmHg 90%
    22:00 +26°C° 1.1 mm 1 mps 751 mmHg 92%
    23:00 +26°C° 1.6 mm 1 mps 750 mmHg 93%

    25 May, Friday

    Time Temperature Precipitation Wind Pressure Humidity
    00:00 +26°C° 1.6 mm 1 mps 750 mmHg 94%
    01:00 +26°C° 1.6 mm 1 mps 750 mmHg 95%
    02:00 +26°C° 1.6 mm 1 mps 750 mmHg 94%
    03:00 +26°C° 1.6 mm 1 mps 749 mmHg 94%
    04:00 +26°C° 1.6 mm 1 mps 749 mmHg 93%
    05:00 +26°C° 1.3 mm 1 mps 750 mmHg 93%
    06:00 +26°C° 1.3 mm 1 mps 750 mmHg 93%
    07:00 +26°C° 1.3 mm 1 mps 751 mmHg 92%
    08:00 +27°C° 0.8 mm 1 mps 751 mmHg 90%
    09:00 +27°C° 0.8 mm 1 mps 751 mmHg 88%
    10:00 +28°C° 0.8 mm 1 mps 751 mmHg 86%
    11:00 +28°C° 1.7 mm 1 mps 750 mmHg 87%
    12:00 +28°C° 1.7 mm 1 mps 750 mmHg 88%
    13:00 +27°C° 1.7 mm 1 mps 749 mmHg 88%
    14:00 +27°C° 1.3 mm 2 mps 749 mmHg 90%
    15:00 +27°C° 1.3 mm 2 mps 749 mmHg 91%
    16:00 +26°C° 1.3 mm 2 mps 748 mmHg 93%
    17:00 +26°C° 0.1 mm 1 mps 749 mmHg 94%
    18:00 +25°C° 0.1 mm 1 mps 749 mmHg 95%
    19:00 +25°C° 0.1 mm 1 mps 750 mmHg 96%
    20:00 +25°C° 0 mm 1 mps 750 mmHg 96%
    21:00 +25°C° 0 mm 1 mps 750 mmHg 96%
    22:00 +25°C° 0 mm 1 mps 751 mmHg 96%
    23:00 +25°C° 0.1 mm 1 mps 750 mmHg 96%

    26 May, Saturday

    Time Temperature Precipitation Wind Pressure Humidity
    00:00 +24°C° 0.1 mm 1 mps 749 mmHg 96%
    01:00 +24°C° 0.1 mm 1 mps 749 mmHg 96%
    02:00 +24°C° 0.2 mm 1 mps 749 mmHg 96%
    03:00 +24°C° 0.2 mm 1 mps 749 mmHg 96%
    04:00 +22°C° 0.2 mm 0 mps 749 mmHg 96%
    05:00 +25°C° 0.3 mm 1 mps 749 mmHg 95%
    06:00 +25°C° 0.3 mm 1 mps 750 mmHg 94%
    07:00 +25°C° 0.3 mm 1 mps 750 mmHg 93%
    08:00 +25°C° 0.3 mm 1 mps 750 mmHg 93%
    09:00 +25°C° 0.3 mm 1 mps 750 mmHg 93%
    10:00 +26°C° 0.3 mm 2 mps 750 mmHg 92%
    11:00 +26°C° 0.1 mm 2 mps 749 mmHg 90%
    12:00 +27°C° 0.1 mm 2 mps 749 mmHg 87%
    13:00 +28°C° 0.1 mm 2 mps 748 mmHg 85%
    14:00 +28°C° 0.1 mm 1 mps 748 mmHg 84%
    15:00 +28°C° 0.1 mm 1 mps 747 mmHg 84%
    16:00 +28°C° 0.1 mm 1 mps 747 mmHg 84%
    17:00 +27°C° 0 mm 1 mps 747 mmHg 87%
    18:00 +26°C° 0 mm 1 mps 748 mmHg 89%
    19:00 +26°C° 0 mm 1 mps 749 mmHg 92%
    20:00 +25°C° 0.2 mm 1 mps 749 mmHg 93%
    21:00 +25°C° 0.2 mm 1 mps 749 mmHg 94%
    22:00 +25°C° 0.2 mm 1 mps 749 mmHg 94%
    23:00 +25°C° 1.5 mm 1 mps 749 mmHg 95%
    Show more